Wind_Speed
51 50 50 49 46 45 44 42 42 44 47 50 51 51 51 50 48 46 42 37 36 33 31 35 32 28 28 25 20 20 18 15 11 9 9 6 3 4 6 7 9 10 13 17 20 20 20 20 21 23 24 25 24 21 17 15 14 13 11 10 10 10 10 10 10 10 10 11 12 13 14 14 15 16 16 17 18 18 19 19 19 18 16 15 12 9
52 52 51 49 48 47 45 44 44 45 47 50 52 53 53 53 50 49 47 42 39 36 33 35 35 32 30 26 22 22 20 17 13 11 9 7 4 4 4 5 7 8 11 15 19 20 20 20 21 22 23 25 24 21 18 16 15 14 13 11 11 12 13 13 13 13 12 12 12 13 13 13 14 14 14 14 15 15 14 15 16 15 13 11 11 13
53 53 52 52 51 50 48 47 46 46 48 50 53 54 55 55 53 52 51 47 43 41 38 37 37 35 31 29 26 23 21 19 16 12 11 9 6 5 3 3 5 7 9 13 17 19 21 21 21 21 22 24 24 22 19 18 17 15 14 13 12 12 13 14 15 15 15 15 15 14 14 14 14 14 14 13 13 12 12 12 12 13 13 14 16 17
53 53 54 55 54 52 51 49 49 48 49 50 53 55 56 56 56 54 53 50 46 42 40 39 40 37 33 31 29 26 24 21 18 15 13 10 8 6 4 2 3 5 8 11 15 18 20 22 22 22 22 23 24 23 21 19 18 16 15 14 13 14 14 15 15 16 16 16 17 17 16 16 15 15 15 15 15 15 15 14 15 15 16 16 17 17
53 54 56 56 56 55 54 52 52 51 49 50 52 55 57 57 57 56 55 54 48 42 41 41 41 38 34 32 31 29 27 24 20 18 15 11 9 7 5 3 1 3 6 9 13 16 19 22 23 22 21 22 24 24 23 21 20 18 16 14 14 15 16 16 16 16 16 16 17 18 18 17 17 17 17 17 16 16 16 16 16 16 16 17 17 17
52 55 57 57 58 58 57 55 54 52 51 51 52 55 58 58 58 58 57 56 52 43 40 41 40 38 36 34 33 31 28 26 22 20 17 13 11 10 7 4 2 1 4 7 10 14 17 21 23 22 21 21 23 24 24 23 21 19 17 15 14 15 16 17 17 17 17 17 17 18 18 18 17 17 17 17 17 17 17 17 17 18 18 18 18 18
52 55 57 58 59 60 59 59 57 55 53 52 53 54 58 59 59 60 59 58 55 47 41 41 38 36 37 36 34 31 29 27 23 23 19 14 12 12 9 6 4 2 2 5 8 11 15 19 22 22 21 21 22 24 23 23 22 21 18 16 14 14 15 16 17 17 17 17 18 18 18 18 18 18 18 18 19 19 19 19 18 18 18 18 18 18
50 53 56 58 60 61 62 62 60 58 55 53 53 55 57 59 59 60 61 59 59 52 43 41 38 34 36 38 35 31 30 28 26 25 22 17 14 13 12 9 6 4 2 4 6 8 12 17 21 21 21 21 22 23 23 23 23 22 19 17 16 15 14 14 15 16 16 16 17 17 18 18 18 18 18 18 18 19 19 19 19 18 18 18 18 18
48 51 54 57 60 63 64 64 63 61 57 56 56 55 57 59 58 60 63 61 61 57 47 42 43 40 37 37 36 33 32 32 31 28 25 21 17 15 14 11 8 7 5 4 6 7 9 14 18 19 19 21 23 24 24 23 23 23 21 19 18 16 15 14 13 13 14 14 15 15 16 16 16 17 17 17 18 18 18 19 19 19 18 18 19 19
47 48 51 56 60 64 66 65 65 63 61 59 58 57 57 59 60 61 65 64 62 61 53 45 45 46 42 38 37 37 36 35 34 30 26 24 20 17 16 14 11 9 8 6 6 6 7 11 15 17 17 19 22 24 25 24 23 24 23 21 20 18 16 15 14 13 12 13 13 14 14 14 15 15 16 16 17 17 18 18 19 19 18 18 19 20
48 50 52 54 58 63 65 66 66 65 64 62 60 58 58 60 62 64 65 65 64 63 57 48 45 48 46 42 40 40 39 38 36 32 29 27 25 20 17 16 14 12 11 8 7 6 6 9 12 14 15 17 20 23 24 24 24 24 24 23 22 21 19 17 15 14 12 12 12 13 13 14 15 15 16 16 17 18 18 19 19 19 19 19 19 21
53 54 55 54 55 58 61 64 65 66 66 65 62 61 60 61 63 65 65 66 67 65 59 52 47 47 48 46 44 43 42 39 36 34 32 30 27 23 19 17 16 14 13 11 9 8 6 8 10 11 12 14 17 20 22 24 24 24 25 24 23 22 21 19 17 16 14 13 12 12 13 13 14 15 15 16 17 18 19 19 19 20 20 19 20 21
60 59 57 56 55 55 58 60 63 66 68 67 65 64 63 62 63 65 66 68 70 69 63 55 48 47 49 48 47 46 45 42 38 36 35 32 29 25 22 19 18 16 14 13 11 9 8 7 9 10 10 11 14 17 19 21 23 24 25 25 24 24 22 21 20 18 16 15 14 13 13 13 14 14 15 15 16 18 19 20 20 20 20 20 20 22
63 62 60 58 58 57 57 58 61 65 69 69 69 67 65 64 64 67 69 71 73 71 67 57 49 48 50 49 49 49 47 45 42 39 36 34 31 28 25 22 20 19 16 15 13 11 9 8 9 10 9 10 12 14 16 18 20 22 24 25 25 24 24 23 22 20 19 18 16 16 15 15 15 15 15 16 17 18 19 20 21 21 21 21 21 23
62 64 64 62 62 61 61 61 62 65 68 71 72 69 66 66 68 70 72 73 74 72 70 61 51 50 51 50 50 51 49 47 44 40 37 36 33 30 28 25 23 21 19 18 16 14 12 10 9 10 10 9 10 12 14 16 17 19 22 24 24 24 24 24 23 22 21 20 19 19 18 17 17 17 17 18 18 19 19 20 21 21 22 22 23 25
56 61 65 66 66 66 66 66 64 65 67 71 73 70 68 68 70 70 71 73 73 72 72 65 54 52 53 52 52 52 51 49 45 41 39 38 35 32 31 29 26 24 22 20 18 16 14 12 10 10 10 9 9 10 12 14 15 17 19 21 23 24 24 24 24 24 23 23 22 21 21 21 20 20 20 20 20 20 21 21 22 22 23 24 25 27
53 58 63 67 69 70 70 70 68 67 68 71 73 73 72 72 71 70 71 73 73 72 73 68 58 54 55 54 54 54 52 49 47 43 39 39 37 36 35 32 28 25 24 22 20 18 17 14 12 11 11 10 10 10 10 12 13 15 16 18 21 22 23 24 24 24 24 24 24 24 23 23 23 23 23 22 22 22 22 23 23 24 25 26 27 29
51 56 60 65 70 72 73 73 72 70 69 70 73 76 76 75 73 72 72 72 73 74 75 70 61 57 57 56 55 56 53 51 49 44 40 40 39 38 37 34 31 28 26 24 21 19 19 17 15 13 12 11 10 10 10 10 11 13 14 16 18 19 21 22 23 23 24 24 25 25 25 25 25 25 25 25 24 24 24 25 25 26 27 28 29 31
49 54 57 61 67 71 73 74 74 73 71 70 73 76 77 76 73 72 73 72 73 76 76 73 65 58 57 57 55 57 56 53 51 47 43 42 41 40 39 36 33 30 28 27 25 23 21 19 18 16 14 13 12 11 10 9 10 11 13 14 16 17 19 20 21 22 23 24 24 25 25 25 26 26 26 26 26 26 26 26 27 28 28 30 31 32
45 51 56 60 64 68 72 75 76 75 74 72 72 75 76 76 74 73 72 72 73 76 77 75 69 61 57 58 56 57 58 55 53 49 45 43 42 41 40 38 35 32 31 31 29 26 23 21 20 19 16 15 14 12 11 10 9 9 11 12 14 16 17 19 20 21 22 22 23 24 25 25 26 26 27 27 27 27 27 27 28 29 30 30 31 32
41 48 53 58 62 67 72 76 76 77 77 74 72 73 74 76 76 74 72 72 74 76 77 77 73 65 59 59 58 58 59 57 55 52 46 43 42 41 41 40 37 35 33 32 30 27 25 23 22 20 19 17 16 15 13 12 10 9 9 10 12 14 15 17 18 19 20 21 21 22 24 25 25 26 27 27 27 27 27 28 28 29 30 31 31 32
38 44 50 56 62 68 72 75 76 78 79 77 74 73 72 75 76 76 75 74 74 77 79 79 77 70 62 60 59 59 61 60 57 54 49 45 44 43 42 41 39 36 35 33 32 29 27 25 24 23 22 20 18 16 14 13 11 10 9 9 10 12 13 15 16 17 18 19 20 20 22 23 24 25 25 26 27 27 27 27 28 28 29 30 30 31
34 40 47 54 62 69 73 75 77 78 79 79 76 70 69 75 79 77 77 76 75 77 79 80 81 76 66 61 61 60 63 64 60 56 53 49 47 46 44 43 41 39 37 34 33 32 30 27 26 24 23 22 20 18 17 15 13 12 10 9 10 10 11 13 14 15 16 17 18 19 20 21 22 23 24 25 25 26 26 26 26 27 27 28 28 29
31 37 44 51 59 65 70 73 74 76 77 78 78 70 66 74 81 78 77 77 77 78 80 81 83 81 71 63 63 62 64 67 62 58 56 53 50 48 45 44 43 42 39 37 35 34 33 30 28 27 25 24 22 21 19 17 15 14 12 11 10 10 11 11 12 13 14 15 17 18 18 19 19 21 22 23 24 24 25 25 25 25 26 26 26 27
28 33 40 47 55 60 66 69 69 71 74 78 82 78 71 75 82 80 78 79 78 80 83 82 83 84 78 68 64 64 64 67 63 59 58 56 53 50 48 46 46 45 42 39 38 38 36 34 32 30 28 25 24 22 20 19 17 16 15 13 12 12 12 12 11 12 13 14 15 16 17 18 18 18 19 21 22 23 23 23 24 24 24 24 25 25
27 31 36 43 53 58 64 69 69 70 75 80 85 84 77 77 83 81 79 81 81 81 84 85 84 84 82 74 68 65 64 66 64 60 59 59 55 52 50 49 49 48 46 42 41 41 39 37 35 32 30 27 25 24 22 21 20 18 17 16 15 14 13 13 12 12 12 12 13 14 15 17 17 17 18 19 20 21 22 22 22 22 23 23 23 24
26 29 32 37 48 58 65 71 72 73 77 82 87 87 81 80 84 82 80 84 85 83 83 85 85 82 81 79 73 67 65 64 63 62 61 60 57 53 52 52 52 50 48 45 43 43 41 38 37 35 32 29 27 26 24 23 22 21 20 19 17 16 15 15 14 13 12 12 12 13 13 15 16 17 18 18 19 20 21 21 22 22 22 22 22 23
24 26 28 31 39 52 63 70 74 77 80 82 87 89 85 83 86 85 83 86 86 83 82 84 84 83 83 82 76 70 65 64 63 63 63 62 60 56 54 54 53 52 50 47 44 43 43 42 41 38 35 33 30 28 26 25 24 23 22 21 20 19 18 17 16 15 15 14 13 13 13 13 14 16 17 18 18 18 19 20 21 21 21 21 21 21
25 27 29 31 33 42 54 64 73 79 81 82 86 90 87 84 86 86 85 85 85 84 83 81 81 84 85 82 78 73 67 64 64 64 64 65 62 58 56 53 51 51 50 49 46 44 45 44 43 41 38 36 33 30 29 27 26 26 25 24 23 22 20 19 18 17 16 16 15 14 13 13 13 14 15 16 17 17 18 18 19 20 20 20 20 20
25 27 28 30 31 36 46 59 72 78 81 83 86 89 89 88 86 83 82 84 84 85 84 80 79 83 85 82 79 77 70 64 66 66 65 66 64 60 57 53 51 51 51 50 47 45 46 46 44 43 40 38 36 33 31 29 28 27 26 25 24 23 22 21 19 18 18 18 17 16 15 14 13 14 14 15 16 16 17 17 17 18 18 18 19 19
23 26 27 28 29 33 40 55 69 76 80 84 86 87 88 89 87 79 76 81 85 84 82 81 80 80 84 84 81 80 74 65 66 69 67 66 64 60 59 57 54 53 53 52 50 48 47 47 45 44 43 41 39 37 34 32 30 29 28 27 26 24 24 23 21 20 20 19 19 18 17 16 15 15 14 14 15 16 16 17 17 17 17 17 17 18
21 24 27 27 28 29 36 50 65 73 78 81 84 85 85 89 88 78 71 75 82 83 77 76 79 79 80 84 83 81 78 69 66 70 70 68 65 62 60 58 56 55 54 53 53 51 49 48 47 46 46 45 43 40 38 35 33 31 30 30 28 26 25 24 23 23 22 21 21 21 20 19 18 17 17 17 17 17 17 18 17 17 17 17 17 17
19 24 27 27 28 28 32 44 57 68 76 78 81 84 85 88 88 79 72 70 75 80 73 64 73 79 79 82 84 82 81 73 67 69 71 69 68 64 62 59 56 55 56 55 54 53 52 50 49 49 48 47 46 43 41 39 36 35 34 33 32 30 28 27 26 25 24 24 24 23 22 22 22 21 21 20 20 20 19 19 19 19 19 19 19 18
15 23 28 29 31 30 31 40 50 61 71 75 78 84 85 87 87 81 77 73 71 76 71 59 65 77 78 79 81 83 84 78 70 68 69 70 69 67 65 63 58 55 56 57 56 55 55 55 53 52 50 49 49 47 45 42 40 39 37 35 35 34 32 31 29 28 27 27 27 26 25 25 25 24 23 23 22 21 21 20 20 20 20 20 20 19
11 20 28 31 34 34 34 41 50 59 68 71 75 82 85 86 87 83 79 76 72 73 68 57 59 69 77 77 74 77 86 84 74 69 68 70 70 68 67 67 64 59 56 56 56 56 57 57 55 54 53 52 51 48 46 45 43 42 40 38 38 37 36 34 33 31 30 30 30 30 29 29 28 27 26 25 24 23 23 22 22 21 21 21 20 20
9 16 24 29 34 36 37 44 50 57 65 68 71 80 85 86 88 86 79 75 75 72 62 52 53 63 75 78 71 72 83 87 80 73 69 70 71 70 70 70 69 66 61 55 54 56 58 59 58 57 58 55 52 49 48 47 47 46 45 43 41 39 38 36 35 34 33 33 32 32 32 32 31 30 29 27 26 26 26 25 25 24 23 23 22 22
7 12 20 27 32 35 38 45 50 54 61 65 69 77 83 84 87 88 81 75 77 74 58 46 52 62 72 78 74 73 81 87 86 78 70 69 72 72 73 73 71 70 66 60 56 56 59 62 62 61 61 58 55 52 51 50 49 48 47 46 44 42 41 39 38 37 37 36 36 36 35 34 34 33 31 30 30 30 29 28 28 27 26 25 25 25
7 10 17 24 30 34 37 43 50 54 56 59 65 73 79 82 85 87 83 77 79 77 60 45 51 62 70 77 77 78 81 85 88 85 74 69 73 74 75 76 75 72 69 66 62 60 61 64 65 64 63 60 57 55 54 52 51 49 48 47 46 45 44 43 41 40 40 40 40 39 38 37 36 35 35 35 34 33 32 31 30 29 28 28 27 27
8 10 16 23 29 33 37 42 49 53 51 52 62 70 75 80 84 85 83 79 79 78 62 45 46 57 67 73 74 77 83 85 88 89 80 72 73 76 76 77 77 75 73 71 68 65 64 65 67 67 64 60 59 58 56 54 52 51 50 48 47 47 47 46 44 44 44 44 43 42 41 40 39 39 38 38 38 38 37 35 34 33 32 30 30 30
10 12 17 24 29 33 37 42 48 53 52 54 61 67 71 78 83 84 83 81 81 77 64 47 41 46 58 70 73 75 81 85 88 92 86 76 74 76 77 78 79 77 76 74 72 70 69 68 68 67 64 61 60 60 58 56 54 53 51 49 46 46 47 48 47 48 49 48 47 46 45 43 43 42 41 41 42 42 41 40 38 37 36 34 34 34
11 13 17 24 30 34 38 44 48 52 55 57 60 65 70 77 83 83 82 82 81 77 66 53 45 42 46 60 74 80 82 84 88 93 91 82 77 75 75 78 80 79 78 76 75 74 72 72 71 69 65 63 63 62 61 59 56 55 53 49 45 43 44 47 50 52 52 51 50 50 49 47 46 45 43 43 44 44 44 44 43 42 41 39 38 38
10 13 16 23 31 36 40 47 51 52 56 59 60 64 70 77 82 84 83 81 79 76 69 59 53 51 48 50 63 80 87 86 88 94 95 88 81 75 72 76 80 80 78 76 75 75 74 74 74 72 69 66 64 64 64 62 59 57 54 49 45 43 43 44 47 51 52 52 52 53 53 52 51 50 47 46 46 46 47 47 48 47 46 45 44 43
9 13 16 21 30 38 44 50 54 55 57 61 63 66 72 78 83 85 85 82 80 79 74 64 59 62 62 56 58 73 86 90 89 93 97 95 87 78 72 73 79 81 80 77 74 74 76 76 75 75 72 69 67 65 65 63 61 59 56 52 47 46 45 45 45 48 50 51 53 55 55 54 53 53 52 51 50 49 49 48 49 50 50 50 50 49
8 12 16 19 27 37 45 52 57 59 60 64 66 70 75 81 84 85 85 84 81 80 79 72 65 67 70 68 64 68 81 89 90 93 97 99 93 83 74 73 78 81 82 80 74 72 75 77 77 76 75 72 70 68 66 65 63 61 59 55 50 49 52 52 50 50 52 53 56 58 58 57 56 55 55 54 53 53 52 52 51 52 53 53 53 54
10 10 15 19 24 35 44 51 57 61 63 66 70 74 80 84 85 84 85 84 82 81 81 78 73 71 73 75 71 69 75 84 89 92 96 99 99 90 79 75 78 81 82 82 78 73 74 77 79 78 76 75 73 71 69 68 66 64 63 60 55 55 58 59 57 54 54 55 58 60 61 61 60 58 57 56 55 55 55 54 53 52 53 55 56 57
11 9 13 18 23 31 41 49 56 63 67 69 73 78 83 85 84 83 84 85 84 84 84 83 79 76 75 77 76 72 72 78 85 91 95 98 101 96 85 78 80 82 82 82 81 78 75 76 79 80 78 77 76 75 73 71 69 68 66 65 62 61 63 64 63 59 57 57 59 62 63 63 63 62 59 57 56 56 56 57 56 56 56 56 57 59
11 10 10 16 22 27 36 45 55 62 68 73 76 79 84 87 84 81 84 87 88 88 87 86 84 81 77 77 78 76 74 76 82 90 95 97 100 101 94 85 81 83 83 82 82 81 79 78 80 82 81 80 79 79 77 75 73 71 70 69 69 69 68 68 67 66 64 62 62 65 67 67 64 64 63 60 56 56 57 57 58 59 59 59 59 60
12 11 10 13 19 25 32 40 50 60 67 72 77 80 83 86 86 82 82 87 92 93 91 87 86 85 82 79 79 79 77 76 80 87 93 97 99 102 100 93 86 84 85 84 83 82 81 80 80 83 85 83 82 81 80 78 76 75 74 74 74 75 74 72 71 71 71 70 69 69 72 71 68 66 66 65 63 61 59 58 58 58 59 60 60 60
13 13 12 12 16 23 30 36 45 56 64 70 76 81 83 85 86 84 82 84 91 96 95 91 88 88 87 84 81 80 78 78 80 85 91 95 99 102 103 100 94 89 87 86 85 83 82 81 80 82 86 86 84 83 83 81 79 78 78 78 79 79 78 77 75 75 75 75 74 73 74 74 72 70 69 69 70 69 67 66 66 65 63 63 62 61
15 13 13 13 15 21 28 34 41 50 60 68 74 80 83 84 85 85 83 83 88 94 98 96 91 89 90 88 85 82 80 79 81 85 89 93 97 101 103 104 101 96 91 89 89 87 85 82 80 81 84 87 87 86 84 84 83 81 80 80 80 81 81 80 79 78 78 78 78 77 77 77 77 76 74 73 73 73 73 73 74 73 71 69 67 65
16 15 14 14 16 18 25 33 39 45 54 63 72 78 81 84 86 86 85 85 86 90 95 97 95 92 92 91 89 86 84 81 80 84 88 91 94 99 102 105 105 102 97 93 92 91 89 87 83 81 83 86 89 89 87 86 85 84 83 82 81 81 82 82 82 81 81 80 81 81 81 81 80 80 80 79 78 76 76 76 76 76 76 75 73 71
Wind_Direction
225 226 227 227 227 227 226 222 213 209 210 212 211 210 209 206 205 204 204 206 202 199 214 224 220 219 221 219 219 224 228 230 225 228 243 230 159 66 36 3 1 19 29 31 33 37 39 36 35 34 33 33 33 34 36 45 55 66 80 96 112 124 134 145 155 163 170 177 183 187 191 195 198 201 203 205 207 211 212 211 214 219 224 230 232 218
225 225 226 227 226 226 225 223 216 210 210 212 211 209 209 206 203 203 202 203 199 195 209 219 216 217 218 215 217 223 225 227 221 219 232 223 171 102 55 13 3 18 31 34 36 41 42 41 39 38 36 36 37 38 39 46 56 65 74 87 102 113 120 123 126 133 140 149 157 162 167 171 177 181 185 188 191 196 199 201 205 209 209 201 180 162
225 225 225 225 225 225 224 223 219 213 211 211 211 209 209 206 204 203 202 201 197 196 207 215 215 216 213 209 213 218 220 223 219 214 225 218 175 133 96 37 7 18 34 39 41 45 46 46 45 42 40 40 41 42 43 47 54 63 72 80 91 102 111 116 119 122 127 132 137 141 145 151 156 160 161 162 161 160 160 160 164 164 161 156 154 152
225 224 224 224 224 224 223 222 220 217 212 210 211 210 209 207 204 203 202 200 197 197 207 215 217 218 213 207 210 213 215 220 217 210 217 209 174 152 138 99 21 20 39 45 45 49 50 51 50 46 44 44 44 45 44 47 53 60 71 80 89 97 103 109 112 116 120 124 126 127 129 133 136 137 137 136 135 135 138 141 144 147 149 151 153 152
226 224 223 223 223 223 223 222 220 218 214 211 211 211 209 207 205 203 202 200 199 199 208 217 219 219 216 210 210 212 213 218 216 208 209 199 177 170 161 140 87 32 47 53 51 52 54 54 53 49 47 48 49 48 47 48 53 57 65 76 87 95 99 103 106 110 114 118 120 122 124 126 127 127 128 129 131 134 137 140 143 145 147 148 148 148
227 224 223 222 222 222 222 222 220 219 215 212 211 211 209 207 205 204 203 201 198 198 206 216 220 220 216 210 209 211 212 215 215 209 204 193 182 181 170 155 154 81 60 65 59 56 59 59 57 53 51 51 53 53 50 50 53 56 61 69 80 91 98 103 106 110 113 116 118 120 122 124 126 127 130 132 133 134 135 136 138 139 140 141 142 143
228 225 223 221 221 221 221 221 220 219 216 213 211 212 210 207 205 204 203 201 197 195 201 209 213 215 213 209 209 210 210 212 213 211 205 193 188 187 175 163 170 171 95 83 72 62 62 64 62 56 54 55 56 57 53 52 54 57 60 64 74 86 97 105 110 113 115 117 118 120 121 123 126 128 130 132 132 133 133 134 134 135 136 138 140 140
230 226 223 221 220 220 220 220 219 219 216 213 211 212 211 207 205 204 203 201 198 195 197 200 203 203 203 205 209 209 207 207 209 210 205 197 193 190 180 170 175 191 160 109 92 73 68 69 67 61 56 57 59 60 58 54 55 59 62 65 70 80 92 102 110 114 118 120 122 124 125 126 128 130 131 133 133 134 135 135 134 135 135 136 136 136
230 227 224 222 220 219 219 218 218 217 216 214 212 211 211 208 205 205 203 202 199 196 196 198 202 204 202 205 209 208 206 205 207 207 203 199 197 192 186 175 175 193 190 142 115 93 77 75 73 67 61 59 61 63 61 58 57 60 63 67 70 76 85 95 104 113 120 124 127 128 130 132 133 135 137 138 139 139 138 137 136 135 134 134 135 135
230 228 225 223 220 219 218 217 216 216 215 214 212 210 210 208 206 205 203 202 199 197 198 199 205 211 211 210 208 205 205 205 206 205 202 202 201 196 191 181 176 192 198 171 141 121 96 84 80 74 67 61 61 63 64 62 60 61 63 67 71 75 80 89 98 107 116 123 128 131 135 137 139 141 143 145 145 144 144 142 142 140 138 137 138 138
230 228 226 224 222 219 218 217 216 216 215 214 212 210 209 209 208 205 203 202 198 196 198 199 202 210 213 211 206 204 206 206 206 205 202 202 202 199 194 185 180 189 198 185 158 149 125 98 89 82 74 67 63 63 64 64 62 62 63 65 70 75 79 84 91 99 108 117 125 132 138 141 144 145 148 149 150 151 151 150 148 147 144 142 142 143
232 228 225 224 223 220 218 217 216 215 215 215 213 210 209 208 209 206 203 202 198 195 197 198 198 205 210 209 206 206 208 208 207 207 206 203 201 199 196 189 185 190 199 193 173 164 152 119 102 92 82 75 68 64 64 64 63 63 64 65 67 72 78 82 86 92 100 110 120 130 138 143 146 148 149 152 154 155 156 156 155 153 150 147 145 145
233 230 225 222 221 221 218 217 216 215 215 214 213 211 209 207 208 207 204 203 200 196 197 199 198 202 208 210 209 208 210 210 209 208 207 205 201 199 198 193 190 192 199 200 187 174 168 144 120 108 93 81 75 69 66 65 64 63 63 65 67 69 75 80 85 90 96 103 113 123 133 140 144 147 149 151 153 156 157 158 157 156 154 150 146 145
232 229 225 221 219 219 218 216 215 214 213 213 213 212 209 206 207 207 205 203 200 197 198 200 200 203 207 212 213 211 211 211 212 210 208 205 201 200 200 196 193 194 198 203 196 182 177 165 141 125 109 92 81 74 70 68 66 65 64 64 66 68 72 77 83 89 94 99 105 113 121 129 134 138 143 145 148 151 154 156 156 155 153 151 147 144
230 227 224 221 218 216 216 215 214 213 212 212 212 212 209 206 207 207 206 204 201 198 198 200 200 201 205 212 215 214 212 211 212 211 209 207 203 200 201 200 197 196 198 203 201 189 183 178 161 143 128 109 91 80 74 72 70 69 66 64 65 67 71 75 80 86 91 96 100 105 111 116 122 127 133 136 140 143 147 151 152 152 151 148 145 143
228 225 222 219 217 214 214 213 212 212 211 211 211 211 210 209 208 208 207 205 201 200 199 199 198 198 201 208 213 214 213 212 212 211 209 208 204 202 204 202 198 197 199 204 203 195 188 185 175 159 146 130 108 92 82 76 73 72 71 69 66 66 69 73 78 83 88 92 96 100 104 109 113 118 123 128 132 136 140 144 146 146 146 144 142 140
225 223 219 217 215 214 212 212 211 210 210 210 210 209 209 209 209 208 208 205 201 200 200 198 196 195 197 204 210 214 213 211 211 209 208 209 207 205 206 204 199 197 200 205 205 199 192 189 186 175 164 149 128 110 95 85 80 76 75 75 70 67 68 70 75 80 84 89 92 96 99 103 107 111 116 120 124 128 132 135 138 139 140 140 139 138
221 220 217 214 213 213 211 210 210 209 209 209 208 208 208 208 208 207 208 205 201 201 201 197 194 192 194 200 208 214 213 210 210 208 206 209 208 207 208 206 201 197 200 205 208 205 198 194 192 186 177 166 147 130 114 99 89 83 80 79 78 73 70 69 72 76 81 86 90 93 96 99 102 106 110 114 117 121 124 127 130 133 135 136 137 138
219 218 215 213 211 211 211 210 209 208 208 208 208 207 207 208 208 207 208 206 202 202 201 197 193 190 193 198 205 213 213 209 209 208 206 208 208 207 208 207 203 199 199 205 208 208 203 198 197 193 186 179 164 148 135 120 103 93 86 83 83 81 77 74 72 74 77 81 86 90 94 97 100 102 106 109 112 115 119 122 126 129 132 135 137 138
218 216 213 211 209 209 209 209 207 207 207 207 207 207 207 207 207 207 208 207 203 202 201 198 195 191 192 195 200 210 213 209 208 208 207 208 209 208 207 207 205 201 201 204 205 206 205 200 200 200 193 187 178 166 156 145 129 112 98 90 88 86 83 80 77 77 78 80 84 88 92 95 98 100 103 106 109 112 115 119 124 128 132 135 137 139
219 215 212 209 207 207 208 207 205 205 205 206 206 206 206 207 206 206 207 207 204 202 201 199 196 193 192 193 197 207 213 210 207 209 208 209 211 210 208 207 206 204 204 205 205 206 206 202 202 203 199 195 190 181 171 161 151 135 120 106 97 92 89 86 83 82 82 83 84 88 91 94 97 100 102 104 108 111 115 119 123 128 132 135 138 140
220 215 211 207 205 206 206 204 203 203 203 204 204 204 205 206 206 206 206 207 205 202 201 201 198 194 193 194 194 203 213 212 208 210 210 210 213 212 209 207 206 206 206 206 206 207 208 205 204 205 204 200 196 191 183 174 166 157 143 129 116 106 99 95 92 89 88 88 88 89 92 96 99 102 104 106 109 112 115 120 124 128 133 136 139 141
224 216 211 207 205 207 205 202 201 201 201 203 201 202 206 204 204 205 205 206 206 203 202 203 200 196 195 196 194 199 212 214 210 211 212 212 213 212 209 207 206 206 207 207 207 209 211 209 206 207 206 202 200 198 193 186 180 174 165 152 139 127 116 109 103 100 97 94 94 94 95 98 102 104 108 110 112 115 117 121 126 130 134 137 140 142
225 218 212 208 206 207 205 201 200 199 200 201 199 201 207 204 202 204 203 205 207 204 202 203 203 199 196 196 194 196 210 216 212 212 214 213 213 212 210 208 206 206 207 207 207 209 212 212 210 208 207 203 202 201 197 194 190 184 179 171 161 150 139 129 119 112 108 104 101 101 101 102 105 108 112 115 117 120 121 124 128 132 136 139 142 144
222 216 212 208 206 206 203 200 198 197 198 199 198 200 205 203 202 202 202 204 206 205 203 203 203 201 198 197 195 196 207 215 213 212 214 212 212 212 210 209 207 207 207 206 207 209 211 212 211 209 207 205 203 202 200 199 197 191 188 183 176 170 160 150 141 130 122 116 111 109 109 109 111 114 117 120 123 126 127 129 131 134 138 141 144 147
217 210 209 208 206 203 200 197 196 196 197 198 198 200 202 201 201 201 201 203 205 205 205 203 203 203 200 199 196 195 205 214 211 209 211 211 210 210 210 209 209 208 207 206 207 208 211 213 213 211 209 206 204 203 202 202 201 197 195 192 187 183 175 167 161 150 139 131 125 120 119 119 120 122 125 127 129 131 133 135 136 138 141 144 147 150
216 209 205 206 206 203 199 196 195 195 196 196 197 200 201 199 199 198 200 203 204 204 205 205 203 202 201 201 199 195 201 210 210 208 209 209 209 209 210 210 210 209 208 207 207 207 209 213 216 215 211 208 206 205 204 203 203 203 200 197 194 191 186 180 173 166 158 149 142 137 134 132 131 131 133 136 137 138 139 140 142 144 146 149 152 154
214 207 203 204 205 204 200 197 196 195 195 196 198 200 200 199 198 198 199 202 204 203 204 206 204 202 201 202 200 196 199 206 209 207 208 208 208 209 211 212 211 210 208 208 208 208 209 212 215 215 214 211 208 206 205 204 205 205 205 202 199 197 195 190 182 177 173 168 163 158 153 149 145 142 141 142 145 147 149 149 150 152 154 156 159 161
212 203 200 200 202 202 201 199 198 195 194 196 198 199 199 198 198 199 200 201 203 204 204 204 205 205 203 201 200 198 198 203 207 207 207 208 208 209 212 214 214 213 211 209 208 209 211 213 214 215 214 213 212 210 207 206 206 208 209 207 204 203 202 198 193 190 185 181 180 176 171 164 159 155 151 149 151 154 157 160 161 162 163 165 167 169
212 200 198 198 199 201 201 200 199 197 194 195 198 199 198 197 198 199 200 200 202 204 203 203 205 206 204 202 201 200 199 201 206 207 207 207 207 209 212 213 214 214 213 211 210 210 212 215 216 216 216 216 215 213 211 209 208 210 211 212 209 208 208 207 204 201 197 194 192 189 185 180 174 170 166 162 160 160 161 164 168 171 174 175 178 179
212 199 194 195 197 201 202 199 198 197 196 196 198 199 199 197 197 198 200 202 203 203 203 204 205 205 205 204 202 202 200 200 204 207 208 207 207 208 211 213 213 213 212 212 212 211 213 217 217 217 217 217 217 217 215 212 211 211 213 215 214 213 212 213 212 210 207 205 204 201 197 194 190 186 183 180 176 172 171 170 171 175 179 182 187 190
213 198 188 190 195 196 200 199 197 197 197 196 198 200 200 198 197 197 199 202 204 203 203 205 207 206 206 206 204 202 201 200 202 206 209 209 208 208 211 214 216 214 212 212 213 213 215 218 219 219 218 218 218 218 218 216 214 213 214 216 217 216 216 217 217 216 214 213 214 212 208 204 201 198 197 196 193 189 186 184 182 183 184 187 191 194
213 196 184 187 191 192 197 198 197 197 197 197 198 200 200 199 197 197 199 202 203 202 201 205 209 208 207 207 206 204 201 200 201 205 208 211 210 209 210 213 215 216 214 213 214 216 216 219 221 221 219 218 219 219 219 219 218 216 215 216 218 217 217 218 220 220 219 219 219 219 217 213 209 206 205 205 203 202 199 195 194 195 195 196 197 198
215 198 189 188 187 188 195 197 196 196 196 198 199 199 199 199 197 198 200 201 202 200 198 204 211 211 209 208 208 207 204 202 202 203 206 210 211 211 211 213 214 215 216 215 216 217 218 219 220 221 221 220 219 219 220 220 221 220 219 219 219 219 218 218 219 220 221 221 222 223 222 220 217 215 212 211 211 212 210 206 205 205 206 206 206 206
225 204 195 191 189 191 194 194 194 193 193 197 200 199 199 199 197 198 200 201 200 197 197 205 213 212 211 210 209 210 208 204 203 203 205 208 211 211 212 214 215 215 216 217 217 218 219 220 221 222 222 221 220 220 221 222 223 224 223 223 223 222 222 221 221 221 222 223 224 225 224 224 224 222 219 217 217 218 219 218 217 216 217 217 217 217
236 211 200 196 196 197 194 191 192 191 192 196 199 198 198 199 199 199 199 199 198 193 195 208 214 212 212 212 210 211 210 206 204 204 204 206 209 212 213 215 216 217 217 217 218 220 220 221 222 223 223 222 221 221 223 223 224 225 224 224 225 226 226 226 226 225 225 226 227 228 228 228 227 225 223 221 222 223 223 223 223 223 224 225 226 227
240 218 206 199 199 201 197 191 190 190 191 195 198 197 198 200 200 199 198 197 196 192 192 206 213 211 212 213 213 212 210 207 205 205 205 206 207 210 213 215 216 217 218 217 217 219 220 221 222 223 223 222 220 221 223 224 225 226 226 225 226 227 228 228 229 229 229 230 230 230 230 231 230 229 227 226 226 226 227 228 228 228 228 229 231 233
238 217 208 200 199 201 198 191 190 189 190 194 196 196 198 200 200 199 198 196 195 193 194 204 213 212 211 213 215 215 212 209 207 206 206 206 207 209 213 215 216 216 218 217 216 218 220 220 221 222 222 221 221 222 223 224 226 227 227 227 227 228 230 230 230 231 232 233 234 234 234 234 234 233 231 230 229 230 231 231 231 232 233 234 235 238
238 215 208 202 199 199 197 192 190 188 188 192 194 194 196 198 199 198 197 195 194 194 196 202 212 216 214 213 215 216 214 211 208 208 207 207 208 210 212 215 216 216 217 218 218 218 220 221 222 223 222 221 222 223 224 225 226 227 227 228 228 229 231 232 233 234 235 235 236 237 237 238 238 238 236 235 235 234 234 234 234 235 235 237 239 241
243 220 209 203 199 197 196 193 190 187 187 189 193 194 194 196 196 196 195 195 194 194 195 197 204 212 216 216 215 216 216 213 210 209 209 207 207 210 212 214 216 216 217 218 219 220 222 223 224 224 224 223 223 224 224 224 225 227 227 227 229 232 232 233 233 235 237 237 237 238 238 239 240 240 240 239 239 239 238 238 237 237 238 239 242 244
248 228 213 205 199 195 194 191 188 185 186 188 191 193 194 194 195 194 193 193 194 195 197 199 201 204 210 215 216 217 217 215 212 210 210 208 207 208 211 214 216 216 217 219 220 221 223 226 226 225 224 224 223 223 224 224 224 226 226 226 228 233 235 236 237 238 239 239 238 238 239 239 239 240 240 241 242 242 242 241 241 241 241 242 243 243
256 234 220 208 200 195 192 189 185 184 186 188 189 191 192 192 193 192 191 192 193 194 196 198 202 204 206 211 216 217 216 216 213 211 211 210 208 207 208 212 216 217 217 218 221 222 224 226 228 227 224 224 224 224 224 224 224 225 225 224 226 229 231 233 235 238 239 240 239 239 239 239 239 240 240 241 243 245 245 245 245 245 244 244 244 243
267 237 225 213 204 197 192 188 185 184 186 188 188 188 189 190 190 190 190 192 193 194 194 195 199 203 206 209 214 214 214 214 213 212 212 212 210 207 207 210 214 217 217 217 220 223 225 225 227 228 226 224 225 225 224 224 224 225 223 222 224 227 230 231 232 233 237 238 238 238 240 240 240 241 241 242 243 244 245 246 247 247 246 247 248 247
289 243 229 218 207 201 195 190 188 187 187 187 187 187 188 188 188 189 191 194 195 195 196 197 200 203 205 208 211 211 211 213 213 211 212 213 212 209 206 208 212 215 217 217 217 221 225 226 227 228 228 226 226 226 225 224 224 224 222 221 221 224 229 235 236 234 236 239 239 238 239 240 242 242 242 243 243 244 245 246 248 248 247 247 249 250
310 260 234 222 211 204 200 195 191 189 189 188 187 187 188 187 187 189 192 194 196 196 197 199 202 205 206 209 210 209 209 211 212 212 211 213 214 211 207 206 210 214 216 218 217 217 222 227 228 228 228 228 228 227 227 225 224 223 221 220 219 219 223 232 237 236 236 240 241 240 240 240 242 244 244 244 244 245 245 245 246 247 247 247 249 250
312 287 243 228 218 208 203 200 196 193 192 190 188 188 189 188 188 190 192 195 196 197 199 201 204 206 208 210 211 210 209 210 212 212 212 213 215 213 209 206 208 212 215 217 218 218 219 224 228 229 228 228 228 228 228 226 225 224 222 221 220 219 221 227 234 236 235 237 239 242 242 241 241 243 244 244 245 245 244 243 244 245 247 248 249 250
301 297 259 233 224 214 206 203 201 198 196 193 190 189 190 190 190 191 193 196 198 198 200 204 206 208 210 211 212 212 211 211 212 212 212 213 215 215 213 208 207 210 213 215 217 219 218 221 226 229 228 227 227 228 229 228 226 225 224 223 223 223 223 224 229 233 236 236 237 239 242 243 241 240 241 241 242 243 243 243 244 246 247 248 249 250
288 288 273 240 225 219 211 205 203 203 201 198 194 192 191 192 192 193 195 198 200 201 202 205 207 209 211 212 212 213 213 213 213 213 213 213 214 216 217 214 209 209 211 213 214 217 218 219 223 227 229 228 227 228 229 229 228 227 227 226 226 226 227 227 227 229 233 236 236 236 239 242 242 240 240 240 239 240 241 243 245 246 247 247 247 249
280 281 278 257 229 219 215 210 205 204 205 203 199 196 194 194 194 196 197 199 202 204 205 206 207 209 211 213 213 213 214 215 215 215 215 214 215 216 218 218 214 211 210 211 213 214 216 218 220 225 228 229 228 228 228 229 229 228 228 228 229 229 229 229 230 230 231 234 236 235 237 240 242 241 241 241 241 241 242 244 246 246 247 248 248 249
277 277 277 269 246 224 215 212 209 206 206 207 205 202 199 198 197 198 199 200 203 206 208 208 209 210 211 213 214 214 215 217 217 216 215 215 216 217 219 220 219 216 213 212 212 213 215 217 219 222 226 228 229 229 228 229 229 229 229 229 230 231 232 231 232 233 234 235 236 237 237 239 242 243 244 243 243 243 243 245 247 248 249 249 249 249
277 278 276 270 257 237 219 212 212 210 208 207 208 208 206 203 202 201 202 202 204 207 209 211 212 212 212 213 214 214 216 218 218 217 217 217 216 217 218 220 222 221 218 215 214 214 215 216 218 220 223 227 229 230 230 229 229 229 229 229 229 231 233 234 234 234 236 237 239 240 241 241 242 244 245 246 245 245 245 245 247 248 249 250 250 249
Height
10892 10894 10897 10900 10905 10909 10913 10918 10923 10927 10928 10930 10934 10938 10942 10947 10954 10959 10961 10965 10969 10973 10975 10975 10978 10982 10983 10985 10987 10987 10987 10988 10988 10988 10988 10988 10988 10987 10986 10986 10985 10983 10981 10978 10975 10972 10969 10966 10964 10961 10958 10955 10952 10950 10948 10946 10943 10942 10941 10940 10939 10939 10939 10939 10940 10940 10941 10941 10942 10943 10944 10945 10946 10947 10948 10950 10951 10952 10953 10955 10956 10957 10958 10959 10960 10961
10886 10889 10893 10897 10901 10904 10908 10913 10917 10921 10923 10925 10928 10932 10937 10942 10949 10953 10955 10960 10965 10969 10971 10971 10974 10978 10981 10985 10986 10985 10986 10987 10987 10987 10988 10988 10987 10987 10987 10986 10985 10984 10982 10980 10977 10973 10971 10968 10965 10963 10960 10957 10954 10952 10950 10948 10945 10943 10942 10941 10941 10940 10940 10939 10940 10940 10941 10941 10942 10943 10944 10945 10946 10947 10948 10949 10950 10951 10953 10954 10955 10957 10958 10959 10960 10961
10881 10885 10889 10892 10895 10899 10903 10907 10911 10915 10917 10920 10923 10927 10932 10938 10944 10947 10951 10956 10961 10965 10967 10967 10970 10974 10978 10982 10983 10984 10985 10985 10986 10987 10987 10987 10987 10987 10987 10986 10985 10985 10983 10981 10978 10975 10972 10970 10967 10964 10962 10959 10957 10954 10952 10950 10947 10945 10944 10943 10942 10941 10941 10941 10940 10941 10941 10942 10943 10943 10944 10945 10946 10947 10948 10949 10950 10952 10953 10954 10955 10956 10958 10959 10961 10962
10875 10880 10883 10885 10889 10893 10897 10901 10905 10908 10911 10915 10919 10922 10928 10933 10939 10943 10947 10953 10957 10961 10963 10964 10966 10970 10974 10978 10980 10982 10983 10984 10985 10986 10986 10987 10987 10987 10987 10986 10985 10985 10984 10982 10980 10977 10974 10971 10968 10966 10965 10962 10959 10957 10954 10952 10949 10947 10946 10945 10944 10943 10943 10942 10942 10942 10942 10943 10943 10944 10945 10946 10947 10948 10949 10950 10951 10952 10953 10955 10956 10957 10959 10960 10962 10963
10869 10873 10875 10879 10883 10887 10891 10895 10898 10902 10907 10911 10914 10918 10923 10928 10934 10938 10943 10949 10954 10959 10961 10961 10963 10967 10971 10974 10976 10979 10980 10982 10983 10985 10985 10986 10986 10986 10986 10986 10985 10985 10985 10983 10982 10979 10976 10973 10970 10969 10967 10965 10962 10959 10957 10955 10952 10950 10948 10947 10946 10945 10944 10944 10943 10944 10944 10945 10945 10945 10946 10947 10948 10949 10950 10951 10952 10954 10955 10956 10958 10959 10960 10961 10962 10964
10862 10865 10868 10873 10877 10880 10884 10888 10892 10897 10902 10906 10910 10914 10918 10923 10930 10935 10939 10945 10951 10957 10958 10958 10960 10964 10967 10971 10973 10975 10977 10979 10982 10983 10984 10985 10985 10986 10986 10986 10985 10985 10985 10984 10983 10981 10978 10975 10972 10971 10970 10967 10964 10962 10959 10957 10955 10953 10951 10949 10948 10946 10945 10945 10945 10945 10946 10946 10947 10947 10948 10949 10950 10951 10952 10953 10954 10955 10956 10957 10959 10960 10961 10962 10963 10964
10854 10857 10862 10867 10870 10874 10878 10882 10887 10891 10896 10901 10906 10909 10913 10919 10926 10931 10935 10941 10947 10952 10954 10955 10958 10961 10964 10968 10970 10973 10975 10978 10980 10982 10983 10984 10984 10985 10985 10985 10985 10985 10986 10985 10984 10983 10980 10977 10974 10973 10972 10970 10967 10964 10962 10960 10958 10955 10953 10952 10950 10948 10947 10947 10947 10947 10947 10948 10948 10949 10949 10950 10951 10952 10953 10954 10955 10956 10958 10959 10960 10961 10962 10962 10964 10965
10846 10850 10855 10859 10863 10866 10870 10874 10880 10885 10891 10897 10901 10905 10909 10916 10923 10927 10931 10937 10942 10947 10950 10952 10955 10957 10960 10964 10967 10970 10973 10976 10978 10980 10981 10982 10983 10984 10985 10985 10985 10985 10986 10986 10985 10984 10982 10979 10976 10975 10975 10973 10970 10967 10965 10963 10961 10958 10956 10955 10953 10951 10949 10949 10949 10949 10949 10949 10950 10950 10951 10952 10953 10954 10955 10956 10957 10958 10959 10960 10961 10962 10962 10963 10965 10966
10840 10844 10848 10851 10854 10857 10861 10867 10874 10879 10886 10891 10895 10900 10906 10913 10918 10922 10926 10931 10937 10942 10946 10948 10951 10953 10956 10960 10964 10968 10970 10973 10975 10978 10980 10981 10982 10983 10984 10984 10984 10985 10986 10986 10985 10985 10984 10981 10978 10977 10977 10976 10973 10969 10967 10966 10964 10961 10959 10957 10955 10953 10952 10951 10951 10950 10951 10951 10951 10952 10952 10953 10954 10955 10956 10957 10958 10959 10960 10961 10962 10963 10964 10964 10966 10967
10833 10837 10840 10842 10845 10849 10854 10861 10867 10873 10880 10885 10890 10895 10901 10907 10912 10916 10921 10927 10932 10937 10942 10944 10946 10950 10954 10958 10961 10964 10967 10969 10972 10975 10978 10980 10981 10982 10983 10983 10984 10985 10986 10986 10986 10986 10985 10982 10980 10979 10979 10978 10975 10972 10970 10968 10967 10964 10962 10960 10958 10956 10954 10953 10953 10952 10952 10953 10953 10953 10954 10954 10955 10956 10957 10958 10959 10960 10961 10962 10963 10964 10965 10966 10967 10968
10826 10829 10831 10834 10838 10843 10850 10856 10862 10868 10874 10879 10885 10891 10896 10901 10906 10911 10917 10922 10927 10933 10938 10941 10943 10947 10951 10955 10958 10961 10963 10966 10970 10973 10976 10977 10979 10980 10982 10982 10983 10984 10985 10986 10986 10986 10986 10984 10981 10981 10981 10980 10978 10975 10973 10971 10969 10967 10965 10963 10961 10959 10957 10956 10955 10955 10954 10954 10954 10954 10955 10955 10956 10957 10958 10959 10959 10960 10961 10963 10964 10965 10966 10967 10968 10969
10815 10818 10823 10828 10833 10839 10846 10851 10857 10863 10868 10873 10880 10885 10890 10895 10900 10906 10913 10919 10923 10928 10933 10937 10940 10943 10947 10951 10955 10958 10960 10964 10968 10970 10972 10975 10977 10979 10981 10982 10983 10984 10985 10985 10985 10986 10986 10985 10983 10982 10982 10981 10979 10977 10975 10974 10972 10970 10968 10966 10964 10962 10960 10959 10958 10957 10956 10956 10956 10956 10956 10957 10957 10958 10959 10959 10960 10961 10962 10963 10965 10966 10967 10968 10969 10970
10802 10808 10815 10822 10828 10834 10839 10845 10851 10856 10861 10867 10874 10878 10883 10889 10895 10901 10908 10912 10916 10923 10928 10932 10936 10940 10944 10947 10952 10955 10958 10961 10965 10967 10970 10973 10976 10978 10979 10980 10982 10983 10984 10985 10985 10986 10986 10986 10984 10984 10983 10983 10981 10979 10977 10976 10975 10973 10971 10969 10967 10965 10963 10961 10960 10959 10959 10959 10958 10958 10958 10958 10959 10959 10960 10960 10961 10962 10963 10964 10965 10967 10968 10969 10970 10972
10792 10799 10807 10815 10821 10826 10832 10838 10843 10846 10852 10859 10865 10869 10876 10884 10889 10893 10898 10902 10909 10918 10924 10928 10933 10937 10941 10944 10948 10952 10955 10959 10962 10965 10968 10971 10974 10975 10977 10979 10980 10982 10983 10984 10984 10985 10986 10986 10985 10985 10985 10984 10983 10981 10980 10978 10977 10975 10973 10972 10970 10968 10966 10965 10963 10962 10962 10961 10961 10960 10960 10960 10960 10960 10961 10962 10962 10963 10964 10965 10966 10968 10969 10970 10972 10973
10781 10788 10797 10805 10811 10817 10823 10828 10831 10837 10844 10851 10856 10864 10873 10878 10879 10883 10890 10896 10905 10914 10919 10925 10931 10935 10939 10942 10945 10948 10952 10956 10960 10963 10966 10969 10971 10974 10975 10977 10978 10980 10982 10983 10983 10984 10986 10987 10986 10985 10985 10985 10984 10983 10981 10980 10979 10978 10976 10975 10973 10971 10970 10968 10967 10965 10965 10964 10963 10963 10962 10962 10962 10962 10963 10963 10964 10964 10965 10966 10968 10969 10970 10972 10973 10975
10771 10777 10785 10793 10800 10806 10812 10817 10823 10831 10837 10843 10850 10861 10869 10872 10874 10880 10886 10893 10902 10910 10915 10922 10928 10931 10935 10938 10940 10944 10949 10954 10957 10961 10964 10966 10969 10971 10972 10974 10976 10978 10980 10982 10982 10983 10985 10986 10987 10986 10986 10986 10985 10984 10983 10982 10981 10980 10979 10977 10976 10974 10973 10971 10970 10969 10968 10967 10966 10966 10965 10964 10964 10964 10964 10965 10965 10966 10967 10968 10969 10970 10972 10973 10975 10977
10760 10765 10773 10781 10789 10796 10802 10808 10815 10822 10828 10835 10843 10852 10859 10863 10869 10876 10881 10888 10899 10905 10910 10918 10925 10928 10931 10934 10937 10939 10945 10951 10954 10958 10961 10963 10966 10968 10970 10972 10974 10977 10979 10981 10982 10983 10984 10985 10987 10987 10987 10986 10986 10985 10985 10984 10983 10982 10981 10980 10979 10978 10976 10974 10973 10972 10971 10970 10969 10968 10968 10967 10967 10967 10967 10967 10967 10968 10969 10970 10971 10972 10973 10975 10977 10979
10751 10755 10762 10770 10778 10785 10792 10800 10808 10814 10821 10829 10835 10842 10849 10854 10862 10870 10875 10885 10895 10900 10906 10914 10920 10924 10927 10930 10934 10936 10941 10947 10951 10955 10958 10960 10963 10965 10967 10970 10973 10975 10977 10979 10981 10982 10983 10984 10986 10987 10987 10987 10986 10986 10986 10985 10984 10984 10983 10982 10981 10980 10979 10978 10976 10975 10973 10973 10972 10971 10971 10970 10970 10969 10969 10969 10970 10970 10971 10972 10973 10974 10976 10977 10979 10981
10743 10747 10754 10762 10769 10778 10786 10793 10801 10809 10815 10822 10828 10835 10842 10850 10859 10865 10871 10881 10889 10894 10902 10910 10915 10920 10923 10926 10930 10932 10937 10944 10948 10952 10955 10956 10959 10962 10965 10968 10971 10973 10975 10977 10979 10980 10982 10984 10985 10986 10987 10987 10987 10987 10986 10986 10986 10986 10985 10984 10984 10983 10982 10981 10979 10978 10977 10976 10975 10975 10974 10973 10973 10972 10972 10972 10973 10973 10974 10975 10976 10977 10979 10981 10982 10984
10736 10740 10747 10754 10762 10769 10776 10784 10794 10802 10809 10817 10823 10830 10838 10846 10854 10861 10868 10876 10883 10888 10897 10906 10912 10916 10917 10920 10925 10928 10932 10939 10943 10948 10951 10954 10956 10959 10962 10966 10969 10971 10972 10974 10976 10979 10981 10983 10984 10985 10987 10987 10987 10987 10987 10987 10987 10987 10987 10986 10986 10985 10984 10984 10983 10981 10980 10979 10979 10978 10978 10977 10976 10976 10976 10976 10976 10977 10978 10979 10980 10981 10983 10984 10986 10988
10730 10734 10741 10748 10754 10759 10764 10774 10786 10795 10803 10811 10819 10827 10834 10841 10848 10856 10863 10870 10876 10883 10892 10900 10906 10909 10911 10915 10921 10924 10928 10934 10939 10944 10949 10952 10954 10956 10960 10963 10966 10969 10970 10972 10975 10977 10980 10981 10983 10984 10985 10986 10987 10987 10987 10987 10987 10988 10988 10988 10987 10987 10986 10986 10985 10985 10983 10983 10982 10982 10981 10981 10980 10980 10980 10980 10980 10981 10982 10983 10984 10985 10987 10988 10990 10991
10725 10729 10734 10741 10746 10749 10754 10765 10777 10787 10797 10805 10814 10822 10828 10835 10843 10849 10855 10862 10869 10877 10885 10890 10895 10902 10908 10912 10916 10920 10923 10929 10935 10941 10946 10949 10951 10954 10957 10961 10964 10966 10968 10970 10973 10976 10978 10980 10981 10982 10984 10985 10986 10987 10987 10987 10988 10988 10988 10989 10988 10988 10988 10988 10987 10987 10987 10986 10985 10985 10984 10984 10984 10984 10984 10984 10984 10985 10985 10986 10988 10989 10990 10992 10993 10995
10722 10725 10729 10734 10738 10740 10747 10758 10768 10779 10790 10800 10812 10819 10821 10827 10834 10841 10849 10858 10864 10870 10878 10883 10888 10895 10902 10907 10912 10916 10918 10924 10931 10937 10942 10946 10948 10951 10955 10958 10961 10964 10966 10969 10971 10974 10976 10978 10980 10981 10982 10984 10985 10986 10987 10987 10988 10988 10989 10989 10989 10989 10989 10989 10989 10989 10989 10989 10988 10988 10987 10987 10987 10987 10987 10987 10988 10988 10989 10990 10991 10992 10994 10995 10996 10998
10718 10721 10724 10728 10732 10737 10745 10757 10767 10777 10787 10798 10807 10811 10812 10818 10824 10833 10845 10853 10857 10864 10870 10876 10883 10890 10895 10901 10908 10911 10913 10919 10927 10933 10939 10943 10946 10948 10952 10955 10958 10960 10963 10966 10969 10971 10974 10976 10977 10979 10980 10982 10984 10985 10986 10987 10988 10989 10989 10990 10990 10990 10990 10991 10991 10991 10991 10991 10991 10990 10990 10990 10990 10990 10990 10990 10991 10991 10992 10993 10994 10995 10996 10998 10999 11000
10714 10717 10720 10724 10728 10734 10744 10756 10766 10773 10781 10789 10796 10798 10802 10810 10816 10825 10836 10843 10849 10856 10861 10866 10875 10883 10888 10895 10902 10907 10909 10915 10923 10929 10935 10939 10942 10945 10949 10952 10954 10957 10960 10963 10966 10969 10971 10972 10974 10976 10978 10980 10982 10983 10985 10986 10987 10988 10989 10990 10990 10991 10991 10991 10992 10992 10992 10992 10992 10992 10992 10992 10992 10992 10993 10993 10993 10994 10995 10996 10997 10997 10999 11000 11001 11002
10710 10712 10715 10719 10723 10729 10737 10747 10755 10761 10766 10774 10782 10788 10794 10802 10811 10820 10830 10835 10840 10847 10854 10861 10869 10878 10885 10891 10897 10902 10905 10910 10918 10924 10929 10934 10939 10942 10945 10948 10951 10953 10957 10960 10962 10965 10968 10970 10972 10974 10976 10979 10980 10982 10983 10985 10986 10987 10988 10989 10990 10991 10991 10992 10992 10993 10993 10993 10994 10994 10994 10994 10994 10994 10995 10995 10996 10996 10997 10998 10999 11000 11001 11002 11003 11004
10707 10709 10712 10715 10719 10723 10729 10736 10742 10748 10755 10764 10772 10779 10786 10794 10803 10813 10820 10825 10832 10841 10850 10857 10864 10873 10881 10887 10892 10898 10901 10907 10914 10920 10925 10930 10934 10938 10940 10943 10947 10951 10954 10957 10959 10962 10964 10967 10969 10971 10974 10976 10978 10980 10981 10983 10985 10986 10987 10988 10989 10990 10991 10992 10992 10993 10994 10994 10995 10995 10995 10996 10996 10996 10996 10997 10997 10998 10999 10999 11000 11001 11002 11003 11004 11005
10703 10706 10709 10713 10716 10720 10727 10733 10737 10741 10749 10758 10766 10772 10780 10788 10796 10804 10810 10817 10827 10837 10845 10854 10862 10869 10875 10881 10888 10894 10898 10904 10910 10915 10921 10925 10929 10933 10936 10940 10944 10947 10951 10954 10957 10959 10961 10963 10966 10968 10971 10974 10976 10978 10979 10981 10983 10984 10985 10986 10987 10989 10990 10991 10992 10993 10994 10994 10995 10996 10996 10996 10997 10997 10997 10998 10998 10999 11000 11001 11001 11002 11003 11004 11005 11006
10700 10702 10705 10709 10713 10718 10725 10732 10735 10739 10745 10752 10760 10768 10776 10784 10792 10798 10804 10814 10824 10832 10840 10852 10860 10865 10871 10877 10884 10891 10896 10900 10905 10911 10916 10920 10925 10930 10934 10939 10943 10946 10948 10951 10954 10956 10959 10961 10963 10965 10968 10971 10973 10975 10977 10979 10981 10982 10983 10984 10986 10987 10989 10990 10992 10992 10993 10994 10995 10996 10997 10997 10998 10999 10999 10999 10999 11000 11001 11001 11002 11003 11004 11005 11005 11006
10698 10700 10703 10707 10711 10715 10721 10727 10732 10737 10742 10748 10755 10763 10771 10779 10787 10794 10802 10812 10820 10828 10837 10846 10853 10860 10868 10874 10880 10888 10894 10897 10900 10906 10911 10915 10921 10927 10931 10936 10940 10943 10945 10948 10951 10953 10956 10958 10960 10963 10966 10968 10971 10973 10975 10976 10978 10980 10982 10983 10985 10986 10988 10989 10991 10992 10993 10994 10995 10996 10997 10998 10999 11000 11000 11000 11000 11000 11001 11002 11003 11003 11004 11005 11006 11006
10696 10698 10701 10705 10708 10712 10717 10722 10728 10734 10740 10745 10752 10760 10768 10775 10783 10792 10801 10808 10814 10823 10833 10841 10847 10856 10864 10871 10877 10884 10890 10892 10895 10901 10906 10910 10917 10922 10926 10930 10934 10937 10940 10944 10947 10950 10952 10954 10957 10960 10963 10965 10968 10970 10972 10973 10975 10978 10980 10982 10983 10985 10986 10988 10990 10991 10992 10993 10994 10995 10997 10998 10999 11000 11001 11001 11001 11001 11001 11001 11002 11003 11004 11004 11005 11006
10694 10696 10699 10702 10705 10708 10712 10718 10724 10731 10738 10745 10752 10759 10767 10773 10781 10790 10797 10803 10810 10821 10834 10842 10848 10854 10860 10867 10873 10879 10884 10888 10891 10896 10901 10906 10912 10917 10921 10925 10929 10932 10936 10939 10942 10945 10948 10951 10953 10956 10959 10961 10964 10966 10968 10970 10972 10974 10976 10978 10981 10983 10985 10986 10988 10990 10991 10992 10993 10994 10995 10996 10998 10999 11000 11000 11000 11000 11001 11001 11001 11002 11002 11003 11004 11005
10693 10694 10696 10698 10700 10704 10709 10715 10721 10729 10737 10745 10752 10759 10767 10773 10781 10788 10794 10799 10809 10822 10835 10843 10848 10852 10857 10862 10868 10874 10879 10883 10887 10891 10897 10902 10907 10913 10917 10921 10924 10928 10931 10935 10938 10941 10944 10947 10949 10951 10954 10957 10960 10962 10964 10967 10968 10970 10972 10975 10977 10980 10982 10983 10985 10987 10989 10990 10991 10992 10993 10995 10996 10996 10997 10998 10999 10999 11000 11000 11000 11001 11001 11002 11002 11003
10691 10693 10694 10695 10697 10700 10705 10710 10717 10725 10735 10743 10749 10757 10765 10773 10781 10788 10793 10799 10810 10824 10834 10839 10843 10849 10854 10860 10866 10871 10874 10879 10883 10887 10892 10898 10903 10908 10913 10916 10919 10922 10926 10930 10933 10936 10939 10942 10944 10947 10950 10952 10955 10957 10960 10963 10965 10967 10969 10971 10974 10976 10978 10980 10982 10984 10986 10987 10988 10989 10991 10993 10994 10994 10995 10996 10997 10998 10999 10999 11000 11000 11000 11000 11001 11002
10689 10691 10692 10694 10695 10697 10701 10706 10712 10721 10731 10739 10746 10754 10763 10772 10779 10784 10791 10800 10812 10825 10833 10836 10839 10844 10851 10859 10867 10869 10870 10874 10880 10883 10887 10892 10898 10903 10908 10911 10914 10917 10921 10925 10929 10932 10935 10937 10940 10942 10944 10947 10950 10954 10957 10960 10962 10964 10966 10968 10970 10972 10975 10977 10979 10981 10983 10984 10985 10986 10988 10990 10991 10991 10992 10993 10994 10995 10996 10997 10998 10998 10998 10999 11000 11000
10688 10689 10691 10693 10694 10696 10699 10703 10710 10718 10725 10732 10740 10751 10761 10769 10774 10781 10791 10801 10813 10822 10829 10832 10835 10839 10845 10853 10858 10859 10861 10868 10874 10878 10882 10886 10892 10897 10902 10905 10908 10912 10916 10920 10924 10926 10929 10932 10934 10936 10938 10942 10947 10951 10953 10955 10958 10960 10963 10965 10967 10969 10972 10975 10977 10979 10980 10981 10981 10982 10984 10985 10986 10988 10989 10991 10992 10992 10992 10993 10994 10995 10996 10996 10997 10998
10687 10688 10690 10692 10694 10695 10698 10703 10708 10715 10722 10729 10736 10747 10757 10764 10771 10780 10791 10800 10810 10817 10822 10825 10827 10830 10836 10842 10845 10848 10854 10862 10868 10873 10877 10880 10885 10891 10895 10899 10903 10907 10911 10914 10917 10920 10922 10924 10927 10930 10933 10937 10943 10946 10948 10951 10953 10956 10959 10961 10964 10966 10969 10971 10973 10975 10976 10977 10978 10978 10979 10981 10983 10984 10986 10987 10988 10988 10989 10989 10990 10991 10992 10993 10993 10994
10686 10686 10688 10690 10692 10694 10698 10702 10706 10712 10720 10727 10734 10742 10752 10760 10769 10779 10788 10796 10805 10812 10816 10818 10819 10821 10825 10831 10835 10841 10848 10854 10861 10868 10872 10875 10879 10883 10888 10892 10897 10902 10905 10908 10911 10913 10915 10917 10921 10924 10927 10933 10938 10941 10943 10946 10949 10952 10955 10958 10961 10963 10965 10967 10969 10971 10972 10973 10973 10974 10976 10978 10979 10981 10982 10983 10984 10984 10985 10986 10987 10988 10988 10989 10990 10990
10686 10685 10686 10688 10690 10692 10696 10700 10704 10710 10718 10724 10730 10738 10748 10756 10766 10776 10784 10791 10799 10807 10811 10814 10817 10820 10824 10828 10831 10837 10842 10847 10854 10860 10866 10870 10873 10876 10880 10885 10890 10895 10899 10901 10904 10907 10909 10911 10914 10918 10923 10929 10933 10935 10938 10941 10944 10947 10950 10953 10957 10959 10961 10963 10965 10966 10966 10967 10968 10970 10972 10974 10974 10976 10977 10978 10979 10980 10981 10982 10982 10983 10985 10986 10986 10986
10685 10684 10684 10686 10687 10690 10694 10698 10702 10709 10716 10721 10727 10735 10744 10752 10761 10770 10778 10785 10792 10798 10802 10806 10811 10816 10822 10827 10832 10834 10836 10840 10846 10852 10858 10863 10866 10869 10874 10878 10883 10889 10892 10895 10898 10901 10903 10906 10909 10914 10920 10925 10927 10930 10933 10936 10939 10941 10945 10949 10953 10955 10956 10958 10960 10960 10959 10960 10963 10965 10966 10968 10969 10970 10972 10973 10974 10975 10977 10978 10978 10979 10980 10981 10981 10982
10684 10683 10683 10684 10686 10688 10692 10696 10701 10707 10714 10719 10725 10732 10739 10747 10755 10763 10771 10778 10784 10790 10794 10797 10802 10807 10811 10816 10822 10824 10826 10831 10838 10844 10849 10855 10860 10864 10868 10872 10877 10882 10886 10890 10892 10895 10898 10900 10903 10909 10915 10918 10921 10924 10927 10930 10933 10936 10940 10944 10948 10950 10951 10953 10954 10952 10952 10955 10958 10959 10961 10962 10963 10964 10966 10967 10968 10969 10972 10973 10973 10973 10974 10975 10976 10976
10683 10683 10683 10683 10684 10686 10690 10694 10699 10705 10711 10716 10722 10729 10735 10742 10749 10757 10764 10769 10774 10779 10783 10787 10790 10794 10796 10800 10804 10808 10813 10821 10828 10834 10839 10845 10852 10857 10861 10865 10870 10874 10879 10884 10887 10890 10893 10895 10898 10903 10908 10912 10915 10918 10921 10924 10927 10931 10935 10938 10941 10943 10945 10946 10946 10946 10946 10949 10952 10952 10954 10956 10957 10958 10960 10961 10962 10963 10965 10966 10967 10968 10969 10970 10970 10970
10682 10682 10682 10682 10684 10685 10688 10692 10696 10702 10707 10713 10719 10725 10731 10736 10743 10751 10756 10760 10763 10768 10772 10774 10775 10776 10779 10782 10785 10790 10798 10807 10815 10823 10830 10836 10843 10849 10854 10858 10862 10867 10872 10877 10880 10883 10886 10889 10892 10896 10901 10905 10909 10912 10915 10919 10922 10925 10929 10932 10934 10936 10937 10939 10940 10940 10940 10942 10944 10945 10946 10949 10950 10952 10954 10955 10957 10958 10959 10960 10961 10961 10962 10963 10963 10963
10682 10681 10681 10682 10683 10684 10686 10690 10694 10699 10704 10709 10715 10721 10726 10731 10738 10744 10749 10752 10755 10760 10763 10765 10765 10766 10768 10770 10771 10776 10785 10794 10803 10812 10819 10826 10833 10841 10847 10851 10855 10860 10865 10870 10873 10876 10879 10882 10885 10889 10894 10899 10903 10906 10909 10913 10916 10919 10923 10926 10929 10930 10930 10931 10933 10934 10933 10934 10935 10937 10939 10941 10943 10944 10947 10949 10951 10951 10952 10953 10954 10954 10955 10956 10956 10956
10680 10680 10680 10681 10682 10684 10686 10689 10693 10697 10701 10706 10711 10716 10721 10726 10732 10738 10743 10746 10750 10753 10755 10757 10759 10760 10762 10764 10766 10770 10778 10787 10794 10802 10809 10816 10823 10832 10838 10843 10847 10852 10857 10861 10866 10869 10872 10874 10878 10882 10887 10893 10897 10900 10903 10905 10909 10913 10916 10919 10922 10924 10924 10924 10925 10927 10927 10927 10928 10930 10932 10934 10935 10937 10939 10942 10944 10945 10945 10947 10947 10947 10947 10948 10948 10949
10679 10679 10679 10679 10680 10682 10685 10688 10692 10695 10698 10702 10707 10711 10716 10721 10727 10732 10736 10740 10743 10746 10748 10750 10752 10754 10757 10760 10763 10769 10775 10781 10787 10794 10801 10807 10813 10821 10829 10835 10839 10844 10849 10854 10858 10861 10864 10867 10870 10874 10880 10885 10889 10892 10895 10897 10901 10905 10908 10911 10913 10915 10916 10916 10917 10919 10921 10922 10922 10923 10924 10926 10928 10930 10932 10934 10936 10937 10938 10939 10939 10939 10940 10940 10941 10941
10678 10677 10677 10678 10679 10680 10683 10686 10690 10693 10696 10699 10703 10707 10712 10716 10721 10725 10729 10733 10736 10738 10741 10744 10747 10750 10753 10756 10761 10766 10772 10776 10781 10787 10793 10799 10804 10811 10819 10825 10831 10836 10841 10846 10850 10853 10856 10859 10862 10866 10871 10876 10880 10883 10886 10890 10895 10898 10900 10903 10904 10904 10905 10907 10909 10911 10912 10914 10915 10916 10916 10918 10920 10923 10924 10926 10928 10929 10930 10931 10931 10931 10932 10933 10933 10934
10676 10675 10675 10676 10677 10678 10680 10683 10687 10691 10695 10698 10701 10703 10707 10712 10715 10718 10722 10726 10729 10732 10734 10737 10742 10745 10749 10752 10757 10762 10767 10772 10777 10782 10787 10793 10798 10802 10809 10815 10822 10827 10832 10837 10841 10845 10848 10851 10854 10858 10863 10867 10871 10875 10878 10882 10887 10890 10891 10893 10893 10894 10896 10899 10901 10902 10903 10904 10906 10907 10907 10909 10912 10914 10916 10917 10919 10920 10922 10923 10923 10923 10923 10924 10925 10927
10673 10673 10673 10674 10675 10676 10678 10680 10683 10687 10692 10696 10699 10701 10704 10707 10710 10714 10717 10721 10724 10726 10729 10732 10736 10740 10743 10747 10753 10758 10762 10767 10772 10777 10782 10787 10792 10796 10800 10806 10812 10818 10824 10828 10832 10837 10840 10843 10846 10850 10854 10858 10862 10866 10870 10874 10878 10881 10883 10884 10884 10885 10888 10891 10893 10894 10895 10895 10896 10897 10899 10901 10903 10905 10907 10908 10909 10912 10914 10915 10913 10914 10915 10916 10917 10919
10670 10671 10671 10671 10672 10673 10675 10676 10679 10682 10686 10691 10696 10699 10701 10704 10706 10709 10712 10715 10718 10721 10724 10727 10731 10734 10738 10742 10747 10752 10757 10761 10766 10771 10776 10781 10786 10790 10794 10798 10803 10810 10815 10820 10824 10828 10832 10836 10838 10841 10845 10849 10853 10857 10861 10865 10869 10872 10874 10875 10876 10877 10880 10883 10885 10886 10887 10887 10888 10889 10891 10893 10895 10897 10898 10900 10901 10903 10905 10905 10904 10905 10907 10908 10909 10910
10666 10667 10668 10668 10668 10669 10671 10673 10675 10677 10680 10685 10689 10694 10697 10700 10702 10705 10707 10710 10713 10716 10720 10723 10726 10729 10733 10737 10741 10746 10751 10755 10760 10765 10769 10774 10779 10783 10788 10791 10795 10800 10807 10812 10816 10819 10823 10827 10830 10833 10836 10840 10844 10848 10852 10856 10859 10862 10865 10866 10868 10869 10871 10874 10876 10878 10879 10880 10880 10881 10883 10885 10887 10888 10889 10891 10892 10894 10896 10896 10896 10897 10898 10899 10900 10901